FW0888 Weather Reports


Display with metric or nautical units.
time (UTC)temp
F
wind
direction
speed
MPH
gust
MPH
rain 1hr
in
rain 24hr
in
rain mn
in
humidity
%
barometer
mb
20190120045410 4 346 2.0 6.0 0.00 0.71 0.14 74 1013.0
20190120044854 4 360 2.0 6.0 0.00 0.71 0.14 74 1012.8
20190120044330 5 23 2.0 10.0 0.04 0.71 0.14 74 1013.0
20190120043910 5 24 3.0 10.0 0.04 0.71 0.14 74 1013.2
20190120043345 5 34 1.0 8.0 0.04 0.71 0.14 74 1013.1
20190120042829 5 30 3.0 8.0 0.04 0.71 0.14 74 1013.1
20190120042402 5 18 1.0 5.0 0.04 0.71 0.14 74 1013.3
20190120041843 5 15 2.0 9.0 0.04 0.71 0.14 74 1013.4
20190120041335 5 22 2.0 10.0 0.04 0.71 0.14 74 1013.4
20190120040859 5 11 2.0 10.0 0.04 0.71 0.14 74 1013.6
20190120040351 5 11 3.0 10.0 0.04 0.71 0.14 74 1014.1
20190120035820 5 355 1.0 5.0 0.04 0.71 0.14 74 1014.1
20190120035407 6 355 1.0 5.0 0.04 0.71 0.14 74 1014.3
20190120034833 6 27 2.0 4.0 0.04 0.71 0.14 74 1014.4
20190120034405 6 28 1.0 6.0 0.00 0.67 0.13 74 1014.5
20190120033850 6 28 2.0 6.0 0.00 0.67 0.13 74 1014.6
20190120033339 6 38 2.0 6.0 0.00 0.67 0.13 74 1014.6
20190120032900 6 5 2.0 5.0 0.00 0.67 0.13 74 1014.7
20190120032349 6 9 1.0 7.0 0.00 0.67 0.13 74 1014.4
20190120031838 6 5 3.0 7.0 0.00 0.67 0.13 74 1014.2
20190120031321 6 15 2.0 6.0 0.00 0.67 0.13 74 1014.1
20190120030853 6 22 1.0 6.0 0.00 0.67 0.13 74 1014.3
20190120030320 6 24 2.0 5.0 0.00 0.67 0.13 74 1014.3
20190120025343 6 5 2.0 8.0 0.04 0.67 0.13 74 1014.3
20190120024905 6 18 3.0 8.0 0.04 0.67 0.13 74 1014.6
20190120024329 6 13 2.0 6.0 0.04 0.67 0.13 74 1014.8
20190120023902 6 16 2.0 6.0 0.04 0.67 0.13 74 1015.1
20190120023326 6 15 3.0 6.0 0.04 0.67 0.13 74 1015.1
20190120022851 6 21 1.0 8.0 0.04 0.67 0.13 74 1015.1
20190120022323 6 15 2.0 8.0 0.04 0.67 0.13 74 1015.2
20190120021904 6 14 2.0 5.0 0.04 0.67 0.13 74 1015.4
20190120021336 6 28 2.0 5.0 0.04 0.67 0.13 74 1015.6
20190120020900 6 28 2.0 5.0 0.04 0.67 0.13 74 1015.8
20190120020351 6 13 1.0 10.0 0.04 0.67 0.13 74 1016.0
20190120015835 6 33 2.0 8.0 0.00 0.63 0.13 74 1016.0
20190120015339 6 37 2.0 8.0 0.00 0.63 0.13 74 1016.1
20190120014911 6 31 3.0 8.0 0.00 0.63 0.13 74 1016.2
20190120014349 6 25 2.0 8.0 0.00 0.63 0.13 74 1016.3
20190120013839 6 37 1.0 6.0 0.00 0.63 0.13 74 1016.6
20190120013402 6 37 3.0 7.0 0.00 0.63 0.13 74 1016.7
20190120012838 6 42 3.0 7.0 0.00 0.63 0.13 74 1016.8
20190120012402 6 31 3.0 8.0 0.00 0.63 0.13 74 1016.8
20190120011851 7 20 2.0 8.0 0.00 0.63 0.13 74 1016.9
20190120011333 6 17 2.0 5.0 0.00 0.63 0.13 74 1016.9
20190120010824 6 19 2.0 4.0 0.00 0.63 0.13 74 1016.9
20190120010407 6 20 1.0 6.0 0.00 0.63 0.13 74 1017.0
20190120005901 6 355 2.0 6.0 0.00 0.63 0.13 74 1016.9
20190120005346 6 21 2.0 9.0 0.00 0.63 0.13 73 1017.0
20190120004830 6 25 2.0 9.0 0.00 0.63 0.13 73 1017.2
20190120004402 6 14 2.0 9.0 0.00 0.63 0.13 73 1017.3
20190120003829 7 344 2.0 10.0 0.00 0.63 0.13 73 1017.2
20190120003353 7 11 3.0 10.0 0.00 0.63 0.13 73 1017.4
20190120002843 7 22 2.0 5.0 0.00 0.63 0.13 73 1017.4
20190120002347 7 21 2.0 5.0 0.00 0.63 0.13 73 1017.4
20190120001834 7 17 1.0 5.0 0.00 0.63 0.13 74 1017.5
20190120001317 7 18 2.0 8.0 0.00 0.63 0.13 73 1017.2
20190120000849 7 14 2.0 8.0 0.00 0.63 0.13 73 1017.5
20190120000330 7 33 4.0 9.0 0.00 0.63 0.13 73 1017.4
20190119235902 7 9 1.0 10.0 0.00 0.63 0.13 74 1017.5
20190119235331 7 11 1.0 4.0 0.00 0.63 0.13 74 1017.6
20190119234855 7 9 1.0 5.0 0.00 0.63 0.13 73 1017.9
20190119234326 7 5 2.0 5.0 0.00 0.63 0.13 74 1017.9
20190119233910 7 15 2.0 5.0 0.00 0.63 0.13 73 1017.8
20190119233339 8 19 2.0 6.0 0.00 0.63 0.13 73 1018.0
20190119232900 8 19 2.0 8.0 0.00 0.63 0.13 73 1017.9
20190119232341 8 5 3.0 8.0 0.00 0.63 0.13 73 1018.2
20190119231832 8 18 2.0 6.0 0.00 0.63 0.13 73 1018.5
20190119231322 8 21 1.0 5.0 0.00 0.63 0.13 73 1018.5
20190119230905 8 22 2.0 5.0 0.04 0.63 0.13 73 1018.6
20190119230342 8 24 1.0 10.0 0.04 0.63 0.13 73 1018.8
20190119225848 8 26 3.0 10.0 0.04 0.63 0.13 73 1018.7
20190119225412 8 10 2.0 9.0 0.04 0.63 0.13 73 1018.9
20190119224843 8 9 2.0 6.0 0.04 0.63 0.13 74 1018.8
20190119224407 8 22 2.0 5.0 0.04 0.63 0.13 73 1018.7
20190119223829 8 21 2.0 5.0 0.04 0.63 0.13 73 1018.7
20190119223400 8 48 2.0 10.0 0.04 0.63 0.13 74 1018.8
20190119222843 7 32 2.0 10.0 0.04 0.63 0.13 73 1018.8
20190119222318 8 40 1.0 9.0 0.04 0.63 0.13 73 1018.9
20190119221843 7 14 1.0 9.0 0.04 0.63 0.13 73 1018.8
20190119221408 8 32 3.0 9.0 0.04 0.63 0.13 73 1019.0
20190119220837 8 24 2.0 9.0 0.00 0.59 0.12 73 1019.0
20190119220401 8 21 2.0 8.0 0.00 0.59 0.12 73 1019.2
20190119215851 8 13 2.0 8.0 0.00 0.59 0.12 73 1019.3
20190119215335 8 17 3.0 12.0 0.00 0.59 0.12 73 1019.3
20190119214907 8 18 4.0 12.0 0.00 0.59 0.12 73 1019.4
20190119214350 8 30 2.0 8.0 0.00 0.59 0.12 73 1019.7
20190119213839 8 348 3.0 8.0 0.00 0.59 0.12 73 1019.8
20190119213401 8 26 2.0 8.0 0.00 0.59 0.12 74 1019.7
20190119212834 8 34 1.0 8.0 0.00 0.59 0.12 74 1019.8
20190119212359 8 10 2.0 8.0 0.00 0.59 0.12 73 1020.0
20190119211849 8 24 4.0 8.0 0.00 0.59 0.12 73 1019.9
20190119210833 8 27 3.0 9.0 0.00 0.59 0.12 72 1020.2
20190119210335 8 24 2.0 9.0 0.00 0.59 0.12 72 1020.2
20190119205840 8 17 4.0 9.0 0.00 0.59 0.12 72 1020.2
20190119205403 9 31 2.0 5.0 0.04 0.59 0.12 72 1020.3
20190119204854 9 27 2.0 8.0 0.04 0.59 0.12 73 1020.3
20190119204321 9 21 2.0 8.0 0.04 0.59 0.12 73 1020.5
20190119203909 9 350 3.0 8.0 0.04 0.59 0.12 72 1020.4
20190119203337 9 26 2.0 11.0 0.04 0.59 0.12 72 1020.4
20190119202400 9 15 3.0 6.0 0.08 0.59 0.12 71 1020.7
20190119201850 9 30 1.0 8.0 0.08 0.59 0.12 71 1020.8
20190119201412 9 12 3.0 8.0 0.08 0.59 0.12 72 1020.8
20190119200859 9 5 2.0 8.0 0.08 0.59 0.12 72 1020.7
20190119195912 9 34 2.0 6.0 0.08 0.59 0.12 72 1021.2
20190119195339 9 18 1.0 6.0 0.04 0.55 0.11 72 1021.2
20190119194903 9 18 3.0 6.0 0.04 0.55 0.11 73 1021.2
20190119194332 9 13 2.0 5.0 0.08 0.55 0.11 73 1021.2
20190119193856 9 27 2.0 6.0 0.08 0.55 0.11 73 1021.3
20190119193322 9 30 3.0 10.0 0.08 0.55 0.11 72 1021.3
20190119192914 9 43 4.0 10.0 0.08 0.55 0.11 72 1021.5
20190119192337 9 45 1.0 6.0 0.04 0.51 0.10 73 1021.6
20190119191908 9 40 2.0 6.0 0.08 0.51 0.10 73 1021.7
20190119191353 9 29 2.0 10.0 0.08 0.51 0.10 73 1021.9
20190119190825 9 28 4.0 10.0 0.08 0.51 0.10 72 1022.0
20190119190403 9 36 2.0 8.0 0.08 0.51 0.10 72 1022.1
20190119185837 9 19 2.0 5.0 0.08 0.55 0.10 73 1022.2
20190119185400 9 17 2.0 4.0 0.08 0.55 0.10 73 1022.3
20190119184825 9 360 2.0 12.0 0.08 0.55 0.10 73 1022.2
20190119184417 9 355 3.0 12.0 0.04 0.51 0.09 73 1022.0
20190119183841 9 26 2.0 9.0 0.04 0.51 0.09 73 1022.2
20190119183332 9 15 3.0 9.0 0.04 0.51 0.09 73 1022.2
20190119182858 9 37 1.0 6.0 0.04 0.51 0.09 74 1022.3
20190119182328 9 37 2.0 9.0 0.04 0.51 0.09 73 1022.3
20190119181852 9 28 3.0 10.0 0.04 0.47 0.09 73 1022.3
20190119181321 9 27 3.0 8.0 0.04 0.47 0.09 73 1022.4
20190119180853 10 15 3.0 10.0 0.04 0.47 0.09 72 1022.5
20190119180332 10 30 3.0 10.0 0.04 0.47 0.09 72 1022.5
20190119175824 10 32 2.0 6.0 0.04 0.47 0.09 73 1022.4
20190119175412 10 40 1.0 4.0 0.08 0.47 0.09 73 1022.6
20190119174835 9 40 1.0 8.0 0.08 0.47 0.09 73 1022.8
20190119174401 9 10 3.0 9.0 0.08 0.47 0.09 73 1022.8
20190119173833 10 14 2.0 6.0 0.08 0.47 0.09 73 1023.1
20190119173413 10 26 1.0 10.0 0.08 0.47 0.09 73 1023.0
20190119172849 10 18 2.0 8.0 0.08 0.47 0.09 73 1023.2
20190119172410 10 27 3.0 8.0 0.08 0.47 0.09 73 1023.3
20190119171835 10 22 3.0 8.0 0.04 0.43 0.08 73 1023.4
20190119171324 10 22 2.0 8.0 0.04 0.43 0.08 73 1023.5
20190119170916 10 360 4.0 8.0 0.08 0.43 0.08 73 1023.6
20190119170401 10 14 1.0 9.0 0.08 0.43 0.08 73 1023.6
20190119165831 9 40 3.0 9.0 0.08 0.43 0.08 74 1023.7
20190119165411 9 38 1.0 9.0 0.04 0.39 0.07 73 1023.9
20190119164902 9 47 1.0 6.0 0.04 0.39 0.07 74 1023.9
20190119164329 9 18 1.0 8.0 0.04 0.39 0.07 73 1024.0
20190119163914 9 15 2.0 9.0 0.04 0.39 0.07 73 1024.1
20190119163343 9 32 3.0 6.0 0.04 0.39 0.07 73 1024.1
20190119162914 9 26 2.0 5.0 0.04 0.39 0.07 73 1024.2
20190119162357 9 24 3.0 5.0 0.08 0.39 0.07 73 1024.1
20190119161847 9 22 1.0 5.0 0.08 0.39 0.07 73 1024.3
20190119161337 10 28 2.0 8.0 0.08 0.39 0.07 72 1024.7
20190119160821 10 19 3.0 8.0 0.04 0.35 0.06 72 1024.7
20190119160354 10 25 2.0 4.0 0.04 0.35 0.06 73 1024.9
20190119155838 10 26 1.0 4.0 0.04 0.35 0.06 72 1025.1
20190119155410 10 25 1.0 4.0 0.04 0.35 0.06 72 1025.3
20190119154839 10 25 2.0 4.0 0.04 0.35 0.06 72 1025.5
20190119154401 10 26 1.0 5.0 0.08 0.35 0.06 72 1025.5
20190119153852 11 34 2.0 5.0 0.08 0.35 0.06 72 1025.7
20190119153344 11 24 2.0 4.0 0.08 0.35 0.06 72 1025.8
20190119152905 11 76 1.0 4.0 0.12 0.35 0.06 72 1025.8
20190119152355 11 76 1.0 5.0 0.08 0.31 0.06 71 1025.7
20190119151838 11 44 2.0 5.0 0.12 0.31 0.06 71 1025.6
20190119151328 11 45 1.0 5.0 0.12 0.31 0.06 71 1025.6
20190119150854 10 45 2.0 5.0 0.16 0.31 0.06 70 1025.7
20190119150323 11 21 1.0 4.0 0.20 0.31 0.06 70 1025.8
20190119145853 11 21 1.0 5.0 0.20 0.31 0.06 70 1025.8
20190119145319 11 19 2.0 9.0 0.24 0.31 0.06 70 1025.9
20190119144842 11 17 3.0 9.0 0.20 0.28 0.05 69 1025.7
20190119144333 11 17 3.0 8.0 0.24 0.28 0.05 69 1025.7
20190119143824 11 10 2.0 9.0 0.24 0.28 0.05 69 1025.6
20190119143349 11 34 2.0 9.0 0.20 0.24 0.04 68 1025.7
20190119142840 11 26 2.0 8.0 0.20 0.24 0.04 69 1025.8
20190119142404 11 24 1.0 8.0 0.20 0.24 0.04 68 1026.0
20190119141833 11 18 2.0 8.0 0.16 0.20 0.03 68 1025.9
20190119141404 11 19 2.0 8.0 0.16 0.20 0.03 68 1025.9
20190119140338 11 18 2.0 6.0 0.08 0.12 0.02 68 1025.7
20190119135843 11 19 2.0 9.0 0.08 0.12 0.02 68 1025.7
20190119135334 11 11 2.0 9.0 0.04 0.08 0.01 68 1025.8
20190119134818 11 21 1.0 6.0 0.00 0.04 0.00 69 1025.8
20190119134406 11 21 1.0 8.0 0.00 0.04 0.00 69 1025.9
20190119133858 11 10 2.0 8.0 0.00 0.04 0.00 69 1026.1
20190119133327 11 38 3.0 10.0 0.00 0.04 0.00 69 1026.2
20190119132819 11 26 3.0 10.0 0.00 0.04 0.00 68 1026.2
20190119132344 11 38 2.0 5.0 0.00 0.04 0.00 68 1026.4
20190119131910 11 42 2.0 5.0 0.00 0.04 0.00 68 1026.2
20190119131341 11 36 1.0 6.0 0.00 0.04 0.00 68 1026.3
20190119130847 11 25 1.0 8.0 0.00 0.04 0.00 67 1026.2
20190119130332 11 28 2.0 8.0 0.00 0.04 0.00 66 1026.3
20190119125904 11 21 1.0 8.0 0.00 0.04 0.00 66 1026.4
20190119125348 11 29 1.0 5.0 0.00 0.04 0.00 65 1026.4
20190119124824 11 32 1.0 4.0 0.00 0.04 0.00 64 1026.4
20190119124347 11 32 2.0 6.0 0.00 0.04 0.00 63 1026.2
20190119123839 11 54 1.0 3.0 0.00 0.04 0.00 63 1026.4
20190119123321 11 28 2.0 6.0 0.00 0.04 0.00 62 1026.5
20190119122912 11 29 2.0 6.0 0.00 0.04 0.00 62 1026.5
20190119122336 11 19 2.0 6.0 0.00 0.04 0.00 62 1026.3
20190119121843 11 19 3.0 6.0 0.00 0.04 0.00 63 1026.3
20190119121412 11 26 1.0 4.0 0.00 0.04 0.00 62 1026.4
20190119120835 11 26 2.0 4.0 0.00 0.04 0.00 62 1026.7
20190119115835 11 26 1.0 5.0 0.00 0.04 0.00 61 1026.6
20190119115356 11 25 2.0 5.0 0.00 0.04 0.00 61 1026.7
20190119114822 11 26 1.0 3.0 0.00 0.04 0.00 60 1026.6
20190119114411 11 26 0.0 3.0 0.00 0.04 0.00 60 1026.6
20190119113836 11 25 1.0 4.0 0.00 0.04 0.00 60 1026.6
20190119112843 11 26 1.0 3.0 0.00 0.04 0.00 60 1026.5
20190119112408 11 26 1.0 3.0 0.00 0.04 0.00 59 1026.4
20190119111859 12 26 1.0 3.0 0.00 0.04 0.00 59 1026.4
20190119111327 11 25 0.0 3.0 0.00 0.04 0.00 60 1026.4
20190119110858 11 26 1.0 4.0 0.00 0.04 0.00 59 1026.4
20190119110341 12 26 1.0 4.0 0.00 0.04 0.00 58 1026.4
20190119105910 12 26 1.0 2.0 0.00 0.04 0.00 58 1026.5
20190119105353 12 26 0.0 2.0 0.00 0.04 0.00 59 1026.3
20190119104826 12 26 1.0 3.0 0.00 0.04 0.00 58 1026.1
20190119104410 12 26 1.0 5.0 0.00 0.04 0.00 58 1026.0
20190119103843 12 26 1.0 5.0 0.00 0.04 0.00 57 1025.9
20190119103405 12 25 1.0 4.0 0.00 0.04 0.00 57 1025.7
20190119102856 12 25 1.0 6.0 0.00 0.04 0.00 57 1025.9
20190119102323 12 25 2.0 6.0 0.00 0.04 0.00 57 1025.6
20190119101849 12 24 2.0 6.0 0.00 0.04 0.00 57 1025.4
20190119101320 12 21 0.0 4.0 0.00 0.04 0.00 57 1025.4
20190119100846 13 21 1.0 3.0 0.00 0.04 0.00 57 1025.3
20190119100335 13 21 0.0 3.0 0.00 0.04 0.00 57 1025.3
20190119095859 13 21 0.0 5.0 0.00 0.04 0.00 57 1025.2
20190119095403 13 21 0.0 5.0 0.00 0.04 0.00 56 1025.2
20190119094852 13 21 1.0 5.0 0.00 0.04 0.00 55 1025.2
20190119094321 13 24 2.0 5.0 0.00 0.04 0.00 55 1025.2
20190119093343 13 24 1.0 6.0 0.00 0.04 0.00 56 1025.2
20190119092907 13 22 2.0 6.0 0.00 0.04 0.00 55 1025.2
20190119092355 13 23 1.0 6.0 0.00 0.04 0.00 55 1025.3
20190119091818 13 24 2.0 4.0 0.00 0.04 0.00 54 1025.2
20190119091409 13 28 1.0 5.0 0.00 0.04 0.00 54 1025.2
20190119090849 13 27 2.0 5.0 0.00 0.04 0.00 55 1025.3
20190119090340 13 26 0.0 5.0 0.00 0.04 0.00 54 1025.4
20190119085904 14 25 1.0 6.0 0.00 0.04 0.00 54 1025.4
20190119085355 14 27 2.0 6.0 0.00 0.04 0.00 53 1025.4
20190119084823 14 17 1.0 3.0 0.00 0.04 0.00 53 1025.6
20190119084355 14 17 1.0 3.0 0.00 0.04 0.00 52 1025.6
20190119083819 14 17 1.0 4.0 0.00 0.04 0.00 52 1025.7
20190119083342 14 17 0.0 2.0 0.00 0.04 0.00 52 1025.8
20190119082833 14 17 0.0 2.0 0.00 0.04 0.00 51 1026.0
20190119082324 14 17 1.0 4.0 0.00 0.04 0.00 50 1026.1
20190119081907 14 17 0.0 4.0 0.00 0.04 0.00 51 1026.1
20190119081338 14 17 0.0 4.0 0.00 0.04 0.00 49 1026.1
20190119080903 14 17 1.0 4.0 0.00 0.04 0.00 48 1026.1
20190119080331 14 17 0.0 3.0 0.00 0.04 0.00 49 1026.0
20190119075902 14 17 0.0 4.0 0.00 0.04 0.00 48 1026.1
20190119075325 15 17 1.0 3.0 0.00 0.04 0.00 47 1026.1
20190119074916 15 17 1.0 6.0 0.00 0.04 0.00 47 1026.2
20190119074337 15 17 1.0 6.0 0.00 0.04 0.00 47 1026.2
20190119073820 15 360 1.0 5.0 0.00 0.04 0.00 46 1026.1
20190119073352 15 5 1.0 6.0 0.00 0.04 0.00 47 1026.1
20190119072836 15 5 2.0 6.0 0.00 0.04 0.00 46 1026.0
20190119072408 15 28 1.0 8.0 0.00 0.04 0.00 46 1026.0
20190119071839 15 26 3.0 8.0 0.00 0.04 0.00 44 1025.9
20190119070846 15 16 2.0 6.0 0.00 0.04 0.00 47 1025.8
20190119065817 15 16 1.0 9.0 0.00 0.04 0.00 47 1025.8
20190119065320 15 360 3.0 9.0 0.00 0.04 0.00 47 1025.7
20190119064340 15 22 2.0 9.0 0.00 0.04 0.00 52 1025.5
20190119063833 15 59 2.0 6.0 0.00 0.04 0.00 53 1025.4
20190119063337 15 21 2.0 11.0 0.00 0.04 0.00 54 1025.3
20190119062834 15 22 3.0 11.0 0.00 0.04 0.00 54 1025.2
20190119062338 16 5 3.0 12.0 0.00 0.04 0.00 54 1025.2
20190119061834 16 17 3.0 12.0 0.00 0.04 0.00 58 1025.2
20190119061337 16 25 1.0 8.0 0.00 0.04 0.00 60 1025.1
20190119060835 16 43 3.0 8.0 0.00 0.04 0.00 60 1025.0
20190119060332 17 17 2.0 6.0 0.00 0.04 0.00 61 1024.9
20190119055817 17 42 1.0 8.0 0.00 0.04 0.00 61 1024.8
20190119055334 17 17 4.0 10.0 0.00 0.04 0.00 61 1024.7
20190119054838 18 5 3.0 10.0 0.00 0.04 0.00 62 1024.7
20190119054334 18 18 2.0 8.0 0.00 0.04 0.00 63 1024.6
20190119053838 19 17 2.0 8.0 0.00 0.04 0.00 62 1024.5
20190119053334 20 30 2.0 8.0 0.00 0.04 0.00 63 1024.4
20190119052831 21 15 1.0 9.0 0.00 0.04 0.00 64 1024.4
20190119052334 21 9 2.0 6.0 0.00 0.04 0.00 65 1024.4
20190119051334 22 20 1.0 6.0 0.00 0.04 0.00 64 1024.3
20190119050831 23 26 2.0 9.0 0.00 0.04 0.00 62 1024.3
20190119050335 23 26 2.0 9.0 0.00 0.04 0.00 61 1024.4
20190119045857 23 28 2.0 10.0 0.00 0.04 0.01 61 1024.4